Location: ??????
(55.6500°N, 37.8000°E)
Time: 19:03:13
(UTC+00:00)

ALOS - Pass Details

Date: 14 April 2024
Orbit: 674 x 676 km, 98.0° (Epoch: 27 May)

Event Time Altitude Azimuth Distance (km) Brightness Sun altitude
Rises 00:04:38 0° 18° (NNE) 3,048 6.9 -17.3°
Reaches altitude 10° 00:06:57 10° 23° (NNE) 2,128 6.0 -17.0°
Maximum altitude 00:11:29 51° 100° (E) 860 2.9 -16.6°
Enters shadow 00:15:12 15° 173° (S) 1,809 4.1 -16.3°
